{"data":{"norad_id":68883,"intl_designator":"2026-095V","name":"KUIPER-00502","alt_names":[],"object_type":"PAYLOAD","status":"ACTIVE","operator":null,"country":"US","launch_date":"2026-04-28","launch_site_code":"AFETR","launch_vehicle":null,"mission":null,"orbit_class":"UNKNOWN","rcs_meters":null,"size_class":null,"mass_kg":null,"dimensions":null,"purposes":[],"wikipedia_slug":null,"has_3d_model":false,"image_url":null,"decayed_at":null,"tle_current":{"epoch":"2026-09-19T10:54:06.176160Z","epoch_age_seconds":105764,"freshness":"FRESH","line1":"1 68883U 26095V   26262.45423815  .00002310  00000+0  33188-3 0  9996","line2":"2 68883  51.8996 170.0666 0001395  71.5000 288.6114 14.79933280 21908","mean_motion":14.7993328,"eccentricity":0.0001395,"inclination_deg":51.8996,"raan_deg":170.0666,"arg_perigee_deg":71.5,"mean_anomaly_deg":288.6114,"bstar":0.00033188,"rev_number":2190,"period_min":97.301683762392,"perigee_km":628.55717507605,"apogee_km":630.51231549299,"semimajor_km":7007.6717452845,"source":"CELESTRAK","updated_at":"2026-09-20T09:00:24.539280Z"}}}